| time (UTC) | temp F | wind direction | speed knots | gust knots | rain 1hr in | rain 24hr in | rain mn in | humidity % | barometer mb |
| 20260504204547 | 53 | 298 | 15.6 | 22.6 | 0.00 | 0.00 | 0.00 | 46 | 1011.2 |
| 20260504203044 | 54 | 286 | 14.8 | 22.6 | 0.00 | 0.00 | 0.00 | 47 | 1011.3 |
| 20260504201549 | 53 | 311 | 14.8 | 22.6 | 0.00 | 0.00 | 0.00 | 47 | 1011.5 |
| 20260504200058 | 53 | 293 | 17.4 | 24.3 | 0.00 | 0.00 | 0.00 | 46 | 1011.4 |
| 20260504194544 | 54 | 292 | 17.4 | 25.2 | 0.00 | 0.00 | 0.00 | 46 | 1011.4 |
| 20260504193045 | 55 | 307 | 16.5 | 24.3 | 0.00 | 0.00 | 0.00 | 46 | 1011.3 |
| 20260504191605 | 54 | 268 | 19.1 | 27.8 | 0.00 | 0.00 | 0.00 | 45 | 1011.2 |
| 20260504190047 | 55 | 304 | 16.5 | 25.2 | 0.00 | 0.00 | 0.00 | 44 | 1011.1 |
| 20260504184547 | 55 | 286 | 17.4 | 27.8 | 0.00 | 0.00 | 0.00 | 45 | 1011.1 |
| 20260504183045 | 55 | 279 | 18.2 | 24.3 | 0.00 | 0.00 | 0.00 | 44 | 1011.0 |
| 20260504181553 | 55 | 294 | 15.6 | 23.5 | 0.00 | 0.00 | 0.00 | 45 | 1011.1 |
| 20260504180054 | 54 | 277 | 17.4 | 26.1 | 0.00 | 0.00 | 0.00 | 45 | 1011.2 |
| 20260504174551 | 55 | 278 | 13.9 | 26.9 | 0.00 | 0.00 | 0.00 | 46 | 1011.3 |
| 20260504173045 | 55 | 301 | 15.6 | 22.6 | 0.00 | 0.00 | 0.00 | 46 | 1011.3 |
| 20260504171545 | 55 | 313 | 17.4 | 26.9 | 0.00 | 0.00 | 0.00 | 46 | 1011.1 |
| 20260504120109 | 47 | 336 | 7.8 | 12.2 | 0.00 | 0.00 | 0.00 | 66 | 1007.3 |
| 20260504081547 | 48 | 208 | 6.1 | 7.8 | 0.00 | 0.00 | 0.00 | 80 | 1004.4 |
| 20260504044546 | 54 | 217 | 7.0 | 9.6 | 0.00 | 0.00 | 0.00 | 67 | 1006.1 |
| 20260504043108 | 54 | 202 | 7.8 | 10.4 | 0.00 | 0.00 | 0.00 | 66 | 1006.0 |
| 20260504041546 | 55 | 192 | 6.1 | 7.8 | 0.00 | 0.00 | 0.00 | 64 | 1006.0 |
| 20260504040048 | 56 | 214 | 7.0 | 11.3 | 0.00 | 0.00 | 0.00 | 61 | 1006.4 |
| 20260504034551 | 57 | 215 | 7.0 | 10.4 | 0.00 | 0.00 | 0.00 | 60 | 1006.4 |
| 20260504033046 | 57 | 209 | 7.0 | 10.4 | 0.00 | 0.00 | 0.00 | 59 | 1006.4 |
| 20260504031550 | 58 | 211 | 7.0 | 11.3 | 0.00 | 0.00 | 0.00 | 58 | 1006.4 |
| 20260504024547 | 59 | 209 | 7.0 | 12.2 | 0.00 | 0.00 | 0.00 | 55 | 1006.4 |
| 20260504023047 | 60 | 184 | 7.0 | 8.7 | 0.00 | 0.00 | 0.00 | 53 | 1006.4 |
| 20260504021548 | 61 | 208 | 6.1 | 11.3 | 0.00 | 0.00 | 0.00 | 50 | 1006.5 |
| 20260504020054 | 63 | 205 | 7.8 | 12.2 | 0.00 | 0.00 | 0.00 | 46 | 1006.6 |
| 20260504014545 | 64 | 196 | 7.0 | 10.4 | 0.00 | 0.00 | 0.00 | 44 | 1006.7 |
| 20260504013050 | 66 | 198 | 7.0 | 13.0 | 0.00 | 0.00 | 0.00 | 41 | 1006.8 |
| 20260504011546 | 67 | 211 | 8.7 | 15.6 | 0.00 | 0.00 | 0.00 | 39 | 1007.1 |
| 20260504010056 | 68 | 201 | 9.6 | 13.9 | 0.00 | 0.00 | 0.00 | 39 | 1007.3 |
| 20260504004547 | 68 | 223 | 9.6 | 15.6 | 0.00 | 0.00 | 0.00 | 38 | 1007.5 |
| 20260504003045 | 69 | 222 | 13.0 | 18.2 | 0.00 | 0.00 | 0.00 | 38 | 1007.7 |
| 20260504001545 | 69 | 219 | 14.8 | 19.1 | 0.00 | 0.00 | 0.00 | 37 | 1007.8 |
| 20260504000046 | 69 | 213 | 11.3 | 16.5 | 0.00 | 0.00 | 0.00 | 36 | 1008.1 |
| 20260503234544 | 70 | 222 | 11.3 | 19.1 | 0.00 | 0.00 | 0.00 | 34 | 1008.3 |
| 20260503233050 | 70 | 228 | 13.9 | 16.5 | 0.00 | 0.00 | 0.00 | 33 | 1008.7 |
| 20260503231550 | 70 | 240 | 11.3 | 17.4 | 0.00 | 0.00 | 0.00 | 32 | 1008.6 |
| 20260503230058 | 69 | 219 | 7.8 | 14.8 | 0.00 | 0.00 | 0.00 | 35 | 1008.8 |
| 20260503224542 | 67 | 221 | 11.3 | 18.2 | 0.00 | 0.00 | 0.00 | 36 | 1008.9 |
| 20260503223055 | 64 | 244 | 15.6 | 24.3 | 0.00 | 0.00 | 0.00 | 49 | 1009.2 |
| 20260503221550 | 63 | 227 | 20.0 | 33.9 | 0.00 | 0.00 | 0.00 | 48 | 1009.9 |
| 20260503220050 | 65 | 262 | 26.9 | 35.6 | 0.00 | 0.00 | 0.00 | 45 | 1010.1 |
| 20260503214554 | 71 | 254 | 5.2 | 10.4 | 0.00 | 0.00 | 0.00 | 28 | 1009.6 |
| 20260503213046 | 73 | 202 | 5.2 | 16.5 | 0.00 | 0.00 | 0.00 | 27 | 1009.8 |
| 20260503211553 | 75 | 248 | 2.6 | 9.6 | 0.00 | 0.00 | 0.00 | 26 | 1010.0 |
| 20260503210045 | 72 | 236 | 2.6 | 7.8 | 0.00 | 0.00 | 0.00 | 27 | 1010.1 |